Total_Precipitation_Accumulation
0.01 0.04 0.19 0.23 0.20 0.19 0.20 0.19 0.17 0.16 0.18 0.20 0.20 0.21 0.21 0.21 0.21 0.20 0.20 0.21 0.20 0.22 0.27 0.29 0.29 0.29 0.27 0.27 0.30 0.31 0.28 0.27 0.22 0.18 0.19 0.22 0.20 0.17 0.15 0.14 0.11 0.18 0.23
0.02 0.05 0.15 0.17 0.17 0.19 0.19 0.16 0.14 0.14 0.15 0.16 0.14 0.14 0.14 0.15 0.17 0.18 0.19 0.19 0.20 0.22 0.24 0.25 0.24 0.23 0.22 0.25 0.33 0.32 0.26 0.20 0.16 0.14 0.12 0.11 0.16 0.18 0.17 0.17 0.15 0.22 0.22
0.01 0.04 0.10 0.15 0.16 0.19 0.18 0.14 0.13 0.12 0.11 0.11 0.10 0.10 0.10 0.12 0.13 0.14 0.16 0.18 0.22 0.24 0.23 0.22 0.20 0.21 0.24 0.29 0.29 0.29 0.27 0.20 0.12 0.11 0.09 0.14 0.19 0.21 0.21 0.18 0.16 0.19 0.20
0.01 0.02 0.05 0.12 0.15 0.18 0.16 0.13 0.12 0.11 0.10 0.10 0.09 0.08 0.09 0.10 0.10 0.11 0.13 0.18 0.22 0.28 0.33 0.30 0.24 0.25 0.30 0.32 0.24 0.24 0.29 0.25 0.14 0.08 0.05 0.15 0.29 0.35 0.28 0.24 0.19 0.19 0.21
0.00 0.01 0.04 0.11 0.15 0.17 0.15 0.14 0.11 0.10 0.10 0.09 0.08 0.08 0.08 0.08 0.08 0.08 0.09 0.13 0.18 0.24 0.29 0.31 0.28 0.29 0.29 0.26 0.21 0.22 0.34 0.36 0.21 0.05 0.05 0.08 0.23 0.48 0.31 0.28 0.24 0.21 0.21
0.01 0.01 0.04 0.11 0.16 0.17 0.15 0.14 0.12 0.10 0.10 0.10 0.10 0.10 0.10 0.08 0.07 0.06 0.06 0.07 0.09 0.14 0.21 0.24 0.25 0.28 0.31 0.29 0.24 0.28 0.42 0.49 0.24 0.08 0.09 0.11 0.22 0.44 0.34 0.31 0.28 0.24 0.22
0.01 0.02 0.04 0.12 0.16 0.17 0.16 0.15 0.15 0.13 0.12 0.11 0.12 0.13 0.12 0.10 0.08 0.07 0.07 0.07 0.06 0.06 0.11 0.17 0.23 0.26 0.31 0.32 0.31 0.40 0.52 0.51 0.25 0.23 0.15 0.12 0.24 0.42 0.42 0.36 0.32 0.28 0.27
0.01 0.02 0.05 0.12 0.16 0.16 0.15 0.16 0.17 0.16 0.15 0.14 0.15 0.15 0.13 0.11 0.11 0.11 0.11 0.10 0.08 0.06 0.07 0.09 0.15 0.21 0.25 0.26 0.33 0.45 0.51 0.34 0.13 0.10 0.08 0.10 0.22 0.42 0.61 0.55 0.43 0.36 0.33
0.01 0.02 0.05 0.09 0.12 0.14 0.15 0.16 0.17 0.17 0.17 0.15 0.16 0.15 0.12 0.09 0.10 0.13 0.14 0.12 0.10 0.09 0.08 0.07 0.09 0.12 0.15 0.19 0.25 0.29 0.27 0.19 0.09 0.13 0.10 0.14 0.22 0.50 0.79 0.76 0.58 0.44 0.38
0.01 0.02 0.04 0.07 0.08 0.09 0.11 0.15 0.17 0.18 0.17 0.16 0.16 0.13 0.09 0.07 0.08 0.10 0.10 0.08 0.09 0.10 0.10 0.07 0.08 0.09 0.08 0.10 0.13 0.15 0.13 0.11 0.06 0.12 0.18 0.19 0.19 0.49 0.85 0.86 0.73 0.58 0.48
0.03 0.03 0.04 0.06 0.06 0.07 0.08 0.11 0.15 0.17 0.16 0.15 0.13 0.11 0.09 0.05 0.05 0.06 0.05 0.05 0.07 0.09 0.08 0.09 0.09 0.08 0.07 0.04 0.05 0.07 0.06 0.04 0.09 0.16 0.19 0.16 0.21 0.50 0.86 0.92 0.83 0.70 0.62
0.02 0.03 0.04 0.05 0.05 0.06 0.06 0.09 0.13 0.12 0.12 0.11 0.10 0.09 0.08 0.07 0.06 0.05 0.05 0.06 0.08 0.09 0.08 0.11 0.11 0.08 0.06 0.06 0.08 0.09 0.04 0.03 0.08 0.09 0.10 0.10 0.24 0.51 0.82 0.93 0.92 0.82 0.77
0.01 0.02 0.03 0.04 0.05 0.05 0.05 0.06 0.09 0.10 0.11 0.12 0.11 0.13 0.16 0.17 0.14 0.12 0.13 0.13 0.11 0.10 0.14 0.17 0.17 0.15 0.18 0.19 0.21 0.16 0.10 0.07 0.06 0.06 0.05 0.07 0.15 0.36 0.67 0.88 0.98 0.97 0.97
0.01 0.01 0.02 0.04 0.05 0.05 0.03 0.05 0.06 0.07 0.08 0.11 0.12 0.13 0.16 0.19 0.19 0.18 0.19 0.18 0.16 0.16 0.18 0.22 0.24 0.23 0.21 0.20 0.23 0.21 0.20 0.16 0.10 0.08 0.06 0.06 0.08 0.16 0.34 0.58 0.81 0.98 1.06
0.01 0.01 0.01 0.03 0.05 0.04 0.04 0.04 0.05 0.05 0.05 0.06 0.07 0.08 0.09 0.11 0.13 0.13 0.12 0.11 0.12 0.13 0.14 0.16 0.17 0.19 0.20 0.19 0.19 0.21 0.23 0.22 0.18 0.15 0.12 0.11 0.08 0.10 0.17 0.30 0.52 0.83 1.04
0.02 0.02 0.01 0.02 0.04 0.04 0.04 0.04 0.04 0.04 0.04 0.04 0.04 0.04 0.04 0.04 0.05 0.04 0.04 0.03 0.03 0.04 0.05 0.05 0.05 0.06 0.09 0.13 0.14 0.14 0.15 0.17 0.21 0.23 0.22 0.21 0.13 0.11 0.14 0.22 0.34 0.56 0.86
0.02 0.02 0.02 0.02 0.03 0.04 0.04 0.04 0.04 0.04 0.04 0.04 0.03 0.02 0.02 0.02 0.02 0.02 0.02 0.02 0.01 0.01 0.01 0.02 0.02 0.02 0.03 0.07 0.10 0.12 0.10 0.12 0.16 0.23 0.25 0.26 0.23 0.18 0.17 0.20 0.27 0.39 0.62
0.03 0.03 0.02 0.02 0.02 0.04 0.04 0.04 0.04 0.04 0.04 0.04 0.04 0.03 0.02 0.02 0.01 0.02 0.02 0.03 0.02 0.02 0.02 0.03 0.03 0.04 0.06 0.07 0.11 0.15 0.14 0.13 0.15 0.21 0.27 0.27 0.27 0.24 0.21 0.20 0.26 0.37 0.51
0.03 0.03 0.03 0.03 0.02 0.03 0.04 0.04 0.05 0.05 0.05 0.05 0.05 0.04 0.04 0.03 0.02 0.02 0.03 0.04 0.04 0.05 0.05 0.05 0.04 0.07 0.09 0.11 0.15 0.17 0.19 0.18 0.16 0.19 0.24 0.30 0.32 0.30 0.31 0.24 0.23 0.32 0.45
0.02 0.03 0.04 0.03 0.03 0.03 0.05 0.06 0.06 0.06 0.05 0.05 0.05 0.05 0.04 0.04 0.04 0.04 0.04 0.04 0.04 0.05 0.06 0.07 0.08 0.10 0.11 0.13 0.14 0.15 0.20 0.24 0.24 0.23 0.29 0.40 0.40 0.34 0.34 0.34 0.29 0.24 0.28
0.03 0.03 0.04 0.04 0.04 0.04 0.05 0.06 0.06 0.06 0.05 0.04 0.04 0.04 0.04 0.04 0.04 0.05 0.05 0.04 0.05 0.06 0.07 0.07 0.07 0.07 0.07 0.08 0.11 0.12 0.14 0.17 0.18 0.19 0.24 0.38 0.51 0.54 0.49 0.48 0.47 0.39 0.30
0.02 0.03 0.03 0.03 0.04 0.04 0.03 0.03 0.03 0.03 0.03 0.03 0.03 0.03 0.03 0.03 0.03 0.04 0.04 0.04 0.04 0.04 0.03 0.03 0.04 0.05 0.04 0.03 0.08 0.14 0.10 0.09 0.13 0.14 0.13 0.22 0.34 0.43 0.47 0.50 0.55 0.57 0.48
0.02 0.02 0.03 0.03 0.03 0.03 0.03 0.03 0.03 0.03 0.03 0.03 0.02 0.02 0.02 0.02 0.02 0.02 0.03 0.03 0.03 0.02 0.03 0.03 0.03 0.06 0.07 0.05 0.07 0.22 0.30 0.19 0.11 0.06 0.08 0.13 0.16 0.20 0.25 0.32 0.41 0.47 0.54
0.02 0.02 0.02 0.03 0.03 0.03 0.04 0.04 0.03 0.02 0.02 0.01 0.01 0.01 0.02 0.02 0.03 0.03 0.03 0.03 0.03 0.03 0.04 0.04 0.04 0.06 0.10 0.11 0.08 0.11 0.20 0.24 0.29 0.16 0.04 0.03 0.03 0.05 0.07 0.12 0.20 0.28 0.37
0.02 0.02 0.02 0.03 0.03 0.03 0.03 0.03 0.03 0.01 0.01 0.01 0.01 0.01 0.02 0.02 0.02 0.02 0.03 0.03 0.03 0.04 0.05 0.05 0.06 0.08 0.11 0.15 0.15 0.14 0.14 0.13 0.19 0.29 0.14 0.03 0.04 0.04 0.04 0.06 0.08 0.13 0.21
0.01 0.02 0.03 0.03 0.03 0.04 0.03 0.02 0.03 0.02 0.01 0.01 0.01 0.02 0.02 0.02 0.03 0.02 0.03 0.03 0.04 0.04 0.05 0.07 0.08 0.10 0.11 0.14 0.17 0.19 0.24 0.26 0.21 0.27 0.24 0.08 0.03 0.03 0.04 0.05 0.05 0.07 0.13